Temperature
27 26 25 24 23 22 22 21 21 21 21 20 20 20 20 20 19 19 19 19 19 19 19 19 19 18 18 19 19 18 19 18 18 19 19 19 19 19 19 19 19 18 18
27 26 25 24 23 22 22 22 21 21 21 21 20 20 20 20 19 19 19 19 19 19 19 19 18 18 18 18 18 18 18 18 18 18 18 19 19 19 19 19 19 18 18
27 26 25 25 24 23 22 22 21 21 21 21 20 20 20 19 19 19 19 19 19 19 19 19 18 18 18 18 18 18 18 18 18 19 18 18 18 19 19 19 19 19 18
27 26 25 25 24 23 22 22 21 21 21 21 20 20 20 20 19 19 19 19 19 19 19 18 18 18 18 18 18 18 18 18 18 18 18 18 18 18 18 18 18 18 18
27 26 26 25 24 24 23 22 21 21 21 20 20 20 20 20 19 19 19 19 19 18 18 18 18 18 18 18 18 18 18 18 18 18 18 18 18 18 18 18 18 18 18
27 26 26 25 25 24 23 22 21 21 21 20 20 20 20 20 19 19 19 19 18 18 18 18 18 18 18 18 18 17 17 18 18 18 17 18 18 18 18 18 18 18 18
27 27 26 25 24 24 23 22 21 21 21 20 20 20 20 19 19 19 19 18 18 18 18 18 18 18 18 17 17 17 17 17 17 17 17 17 17 17 17 17 17 18 18
28 27 26 25 25 24 23 22 21 21 21 20 20 20 20 19 19 19 19 18 18 18 18 18 18 18 18 17 17 17 17 17 17 17 17 17 17 17 17 17 17 17 17
28 27 26 26 25 24 23 22 22 21 20 20 20 20 19 19 19 19 18 18 18 18 18 18 17 17 17 17 17 17 17 16 16 16 16 16 16 16 16 17 17 17 16
27 27 26 25 25 24 23 23 22 21 20 20 20 19 19 19 19 18 18 18 18 18 18 18 17 17 17 17 17 16 16 16 16 16 16 16 16 16 16 16 16 16 16
27 27 26 25 25 24 23 22 22 21 20 20 19 19 19 19 18 18 18 18 18 18 18 17 17 17 16 16 16 16 16 16 16 16 15 16 16 16 16 16 16 16 16
27 26 25 25 24 24 23 22 21 21 20 20 19 19 19 18 18 18 18 18 17 17 17 17 17 16 16 16 16 16 16 16 15 15 15 15 15 15 15 15 15 15 16
26 26 25 24 24 23 23 22 21 20 20 19 19 19 18 18 18 18 17 17 17 17 17 16 16 16 16 16 16 16 15 15 15 15 15 15 15 15 15 15 15 15 15
25 25 24 23 23 22 22 22 21 20 19 19 19 18 18 18 18 17 17 17 17 17 17 16 16 16 16 16 16 15 15 15 15 15 15 15 15 15 15 15 15 15 15
25 24 23 23 22 22 21 21 20 20 19 19 18 18 18 18 17 17 17 17 17 17 17 16 16 16 16 16 16 15 15 15 15 15 15 15 14 15 15 14 14 14 14
24 23 23 22 21 21 21 20 20 19 19 18 18 18 17 17 17 17 17 17 16 16 16 16 16 16 15 15 15 15 15 15 14 14 14 14 14 14 14 14 14 14 14
23 22 22 21 21 20 20 19 19 19 19 18 18 17 17 17 17 17 16 16 16 16 16 16 16 16 15 15 15 15 15 14 14 14 14 14 14 14 14 14 14 13 13
22 22 21 21 20 20 19 19 19 18 18 18 17 17 17 17 17 16 16 16 16 16 16 15 15 15 15 15 15 15 14 14 14 14 14 14 14 14 14 13 13 13 13
21 21 21 20 20 19 19 19 18 18 18 17 17 17 17 16 16 16 16 16 15 15 15 15 15 15 15 15 14 14 14 14 13 13 13 13 13 13 13 13 13 13 13
20 20 20 20 19 19 18 18 18 17 17 17 17 17 17 16 16 16 16 15 15 15 15 15 15 14 15 15 14 14 14 13 13 13 13 13 13 13 13 13 13 13 13
20 19 19 19 18 18 18 17 17 17 17 17 16 16 16 16 16 15 15 15 15 15 14 14 14 14 14 14 14 14 13 13 13 13 13 13 13 13 13 13 13 12 12
19 19 18 18 17 17 17 17 17 16 16 16 16 16 16 15 15 15 15 15 15 14 14 14 14 14 14 14 14 14 13 13 13 12 12 12 13 13 13 12 12 12 12
18 18 17 17 17 16 16 16 16 16 16 16 16 16 15 15 15 15 15 14 14 14 14 14 13 13 13 13 13 13 13 13 12 12 12 12 12 12 12 12 12 12 12
17 17 17 16 16 16 16 16 16 16 15 15 15 15 15 15 15 14 14 14 14 14 13 13 13 13 13 13 13 13 12 12 12 12 12 12 12 12 12 12 12 12 12
17 16 16 16 16 15 15 15 15 15 15 15 15 15 15 15 14 14 14 14 14 14 13 13 13 12 12 12 12 12 12 12 12 12 11 11 11 12 12 12 12 12 11
16 16 15 15 15 15 15 15 15 15 15 15 14 14 14 14 14 14 14 14 13 13 13 13 13 12 12 12 12 12 12 12 11 11 11 11 11 11 11 11 11 11 11
Wind_Speed
11 11 10 11 11 9 8 6 6 5 4 3 3 3 2 2 3 3 4 4 2 2 2 2 1 2 2 3 2 2 1 1 0 1 1 1 3 3 3 2 2 2 4
11 12 12 11 11 10 9 8 6 6 6 4 3 3 3 2 3 3 3 3 3 2 2 1 1 1 2 2 2 2 2 2 1 1 1 0 0 1 3 3 3 3 3
10 11 11 11 11 10 10 8 7 7 6 5 4 3 3 2 2 3 3 2 3 3 2 2 1 2 1 1 1 1 2 2 1 1 1 1 1 1 1 2 3 3 3
8 10 11 11 10 11 10 9 8 7 6 5 4 4 4 3 2 2 3 3 2 3 3 1 1 2 2 2 1 2 2 2 2 1 0 1 0 1 1 1 1 2 2
8 8 10 11 10 10 10 10 8 8 7 6 5 3 3 3 3 3 4 3 3 3 2 2 1 1 1 2 2 2 2 2 3 3 2 1 1 2 1 1 1 1 1
9 8 8 8 8 9 10 10 9 8 8 7 6 5 4 4 4 4 4 3 3 2 2 2 1 1 1 1 1 1 2 2 3 4 3 2 2 2 1 2 2 1 1
10 9 8 8 7 8 10 11 11 9 8 7 6 5 5 5 5 4 3 3 3 3 3 2 1 0 0 1 0 0 1 2 2 3 3 3 3 2 2 1 2 2 1
8 8 9 8 8 8 9 11 11 9 9 8 6 5 5 4 3 3 2 2 2 2 3 3 2 1 0 0 0 0 1 1 2 3 3 3 3 3 2 1 2 2 2
5 6 7 8 8 8 8 11 11 9 8 8 7 5 4 3 3 3 2 2 1 2 3 2 2 2 1 0 0 0 1 1 2 3 2 3 3 3 3 2 1 1 2
5 5 6 7 7 7 9 10 11 9 8 7 7 6 5 4 3 3 3 2 2 1 3 2 2 2 2 1 1 1 1 1 2 2 2 3 3 3 3 2 2 1 2
5 5 6 6 6 7 7 9 10 9 8 7 6 6 6 5 4 4 3 2 2 2 2 2 2 2 2 1 1 2 1 2 2 3 2 2 3 3 3 3 2 2 1
5 5 6 6 6 6 6 7 8 9 8 7 6 6 5 5 5 4 4 3 2 2 2 2 2 2 2 1 2 3 2 2 3 3 3 3 2 2 3 3 3 3 2
6 5 5 5 5 5 5 5 6 6 6 7 7 6 5 5 4 4 4 3 3 2 2 2 2 2 2 2 2 2 3 3 3 3 3 3 2 2 2 3 3 3 3
4 5 5 5 5 4 4 4 5 5 5 5 5 5 5 5 4 4 4 3 3 3 2 2 2 2 1 1 1 3 4 3 3 3 3 3 3 2 3 3 2 3 3
5 5 5 5 4 4 4 3 3 3 4 4 4 3 4 4 4 3 3 3 3 3 2 2 3 3 2 1 1 3 4 3 3 3 3 3 3 3 3 3 2 2 2
3 3 4 4 4 3 3 3 3 3 3 3 3 2 2 3 3 3 3 3 2 2 2 3 2 1 1 1 2 2 3 3 3 3 3 2 1 1 2 2 3 3 3
3 3 3 3 3 3 2 2 2 3 3 3 3 3 3 3 3 4 4 4 3 3 2 2 2 2 2 1 1 3 3 2 2 2 3 4 3 1 1 2 4 4 5
4 4 3 3 3 3 2 2 2 3 3 3 3 3 3 3 3 3 3 3 3 3 3 3 2 2 2 2 1 3 3 3 2 2 2 2 2 2 2 3 3 3 3
5 3 3 3 3 3 2 2 2 2 3 3 3 3 3 3 3 3 3 2 2 3 3 2 2 2 2 3 2 3 3 3 3 2 2 1 1 2 2 3 3 4 3
5 4 4 4 4 3 2 1 2 2 1 2 2 2 3 3 3 3 2 2 2 3 3 2 2 2 2 3 2 2 3 3 3 2 1 0 0 2 2 3 3 4 4
5 5 5 5 5 4 3 2 2 1 0 1 2 2 2 3 3 2 2 2 3 3 3 2 2 3 3 3 3 2 2 3 3 3 2 1 1 2 4 4 4 6 6
4 4 4 4 4 3 3 2 2 2 1 0 1 1 2 3 2 2 3 3 3 3 3 3 2 2 2 3 3 3 3 4 3 3 3 2 4 5 6 6 7 8 7
3 3 3 3 3 3 2 2 2 2 1 0 0 1 1 2 2 3 3 3 3 3 3 3 3 3 2 2 1 3 4 4 3 3 4 5 6 6 6 8 8 6 4
2 2 3 3 3 3 3 2 2 1 0 1 1 2 2 2 2 2 2 3 3 3 3 3 3 2 2 1 1 2 3 4 4 4 5 7 7 7 6 5 5 4 3
2 2 2 2 2 2 2 2 2 2 1 1 2 2 2 1 1 2 2 3 2 2 3 2 2 2 2 2 2 3 3 3 3 4 4 4 4 3 3 3 3 3 2
2 2 1 1 2 2 2 2 2 1 1 2 2 3 2 1 2 2 2 1 1 3 3 2 2 1 2 2 2 2 3 4 4 3 4 4 4 4 3 3 3 2 2
Wind_Direction
164 159 161 157 152 149 150 156 157 152 152 160 172 178 163 145 130 124 119 117 104 90 78 30 37 35 61 48 30 8 312 293 301 298 260 204 198 178 167 173 172 169 169
164 162 167 166 162 157 157 160 165 161 167 167 170 165 152 151 140 123 118 133 120 93 97 73 354 48 89 65 18 18 332 324 8 302 302 294 267 274 191 176 177 179 185
174 171 170 170 169 165 167 172 171 167 173 169 166 162 141 148 132 132 132 127 127 121 62 58 26 16 56 79 353 16 349 324 317 30 18 6 312 305 205 200 171 172 183
174 177 173 175 177 171 170 167 165 165 171 170 174 173 159 162 150 139 131 140 133 124 115 87 65 29 35 56 16 47 338 323 321 308 203 173 136 246 299 269 181 174 177
172 180 176 174 178 172 168 166 163 165 169 174 167 172 163 160 146 143 145 152 143 125 113 108 83 83 60 45 25 25 358 352 341 338 335 318 269 244 243 278 274 220 187
167 175 172 164 172 169 164 161 160 165 166 171 171 173 170 168 154 153 162 171 154 142 125 115 86 84 78 54 30 356 10 0 355 342 334 333 328 314 296 279 277 265 230
173 175 166 162 163 164 166 162 159 164 167 172 175 174 172 174 168 172 173 177 161 150 148 146 137 147 156 135 76 310 350 348 333 325 323 327 329 335 330 312 307 310 284
170 168 169 163 161 167 165 156 155 163 169 173 174 171 176 189 174 171 168 160 155 148 151 158 158 162 198 138 329 308 301 325 311 319 327 315 313 319 311 305 301 300 300
162 158 160 158 158 164 160 156 153 160 166 169 165 164 173 179 168 156 159 156 156 160 148 160 167 171 174 262 179 297 306 330 319 316 321 308 306 306 311 305 290 283 294
143 145 146 146 152 167 158 153 152 160 164 164 172 169 171 169 167 152 155 160 165 146 143 164 182 185 190 202 248 255 285 293 287 290 317 314 315 317 314 314 308 294 267
127 131 134 136 150 147 147 156 155 160 164 168 167 165 171 174 175 167 170 169 174 168 167 175 193 203 210 221 250 261 270 282 293 291 283 276 285 305 311 306 306 302 283
112 118 123 132 136 140 143 147 157 165 165 163 166 173 169 174 183 174 174 171 180 193 190 194 211 220 211 232 251 271 280 277 277 280 280 276 269 282 296 300 292 290 282
92 103 109 114 119 122 131 140 151 153 156 163 170 175 178 180 179 176 181 181 184 194 216 207 217 230 223 244 262 271 280 283 282 278 271 266 267 270 280 282 288 287 294
91 90 90 86 88 101 103 118 134 141 150 154 165 171 176 173 179 181 179 185 183 180 201 224 236 238 219 259 292 287 278 282 289 290 289 264 244 251 270 272 285 298 300
82 77 78 82 86 95 105 113 127 131 139 144 156 165 169 169 175 177 178 183 194 196 192 219 238 250 226 255 297 286 273 274 282 290 293 272 244 245 254 270 284 292 290
91 70 72 80 83 82 97 112 123 124 131 147 155 147 164 171 172 179 176 182 194 208 211 218 223 246 259 40 350 327 303 294 297 305 303 289 277 300 238 259 284 283 275
88 73 64 76 89 92 111 127 131 131 136 149 153 157 176 188 188 194 188 196 200 204 209 220 202 170 160 218 316 326 297 287 286 290 292 292 295 314 306 278 273 276 274
74 59 43 63 97 106 99 112 123 134 150 161 169 172 184 186 186 205 205 206 206 213 214 215 197 182 200 201 246 302 272 270 257 261 263 260 299 311 314 287 281 272 275
63 48 27 28 61 75 71 124 154 152 162 173 182 184 192 198 200 211 212 207 209 219 220 215 213 204 201 213 233 290 265 270 276 273 280 242 239 307 314 290 286 288 283
59 42 32 40 63 62 65 74 154 155 174 188 198 198 197 208 211 214 206 209 217 228 231 223 216 212 208 207 218 268 272 275 279 277 257 324 205 271 280 282 285 282 286
58 52 42 41 58 55 51 53 70 105 208 222 213 207 194 204 210 203 205 210 222 226 230 229 225 222 199 188 200 204 281 289 282 277 263 248 242 268 259 256 261 265 275
48 52 50 43 53 55 53 45 34 19 35 55 243 214 202 225 219 198 210 211 217 223 220 217 230 231 197 181 196 212 246 280 286 284 286 278 266 264 260 252 256 265 273
44 40 46 47 49 49 47 25 11 17 34 16 294 255 233 236 223 213 221 215 211 228 223 224 233 235 211 179 177 236 254 274 273 283 292 290 276 265 255 243 249 260 266
42 39 44 43 34 27 24 8 5 11 7 296 268 248 230 242 218 219 223 219 221 227 228 236 249 252 234 226 238 258 264 273 276 282 287 281 270 263 257 247 240 241 247
45 39 48 45 30 23 19 7 19 10 346 299 278 270 251 232 221 233 252 240 224 226 227 236 245 262 261 270 248 246 260 258 261 275 275 270 273 263 258 257 246 241 247
52 38 22 3 357 354 359 12 12 357 310 284 283 282 273 238 241 240 261 341 249 200 196 206 223 230 198 201 229 239 254 265 262 253 263 268 275 279 275 263 256 244 241
Height
1501 1503 1506 1509 1510 1512 1514 1516 1517 1518 1520 1521 1522 1524 1525 1526 1526 1526 1526 1527 1527 1527 1527 1527 1528 1528 1528 1528 1528 1528 1528 1528 1528 1528 1527 1528 1528 1528 1529 1529 1530 1530 1531
1498 1501 1504 1507 1509 1510 1512 1514 1516 1517 1518 1520 1522 1523 1525 1525 1526 1526 1526 1526 1527 1527 1527 1527 1527 1528 1528 1528 1528 1527 1528 1528 1528 1528 1527 1528 1529 1528 1528 1528 1529 1529 1530
1496 1499 1502 1505 1507 1509 1510 1512 1514 1515 1517 1519 1521 1523 1524 1524 1525 1525 1525 1526 1526 1526 1527 1527 1527 1528 1528 1528 1527 1527 1527 1527 1528 1528 1528 1528 1527 1527 1528 1528 1528 1528 1529
1493 1497 1499 1502 1505 1507 1509 1511 1512 1514 1516 1517 1519 1521 1522 1523 1523 1524 1525 1525 1526 1526 1526 1526 1527 1527 1527 1527 1527 1527 1527 1527 1527 1528 1527 1528 1527 1527 1527 1527 1527 1527 1527
1490 1494 1497 1499 1502 1505 1507 1508 1510 1512 1514 1516 1517 1519 1520 1521 1522 1523 1524 1525 1525 1525 1526 1526 1526 1526 1526 1526 1527 1527 1526 1526 1526 1526 1527 1526 1526 1526 1526 1526 1526 1527 1526
1488 1492 1494 1497 1500 1502 1505 1506 1508 1510 1512 1513 1515 1517 1518 1520 1521 1522 1523 1524 1524 1524 1525 1525 1525 1525 1525 1526 1526 1526 1526 1525 1525 1525 1525 1526 1525 1525 1525 1525 1524 1525 1525
1486 1489 1492 1495 1497 1500 1502 1504 1506 1508 1510 1511 1513 1515 1517 1518 1519 1520 1521 1522 1523 1523 1523 1524 1524 1524 1524 1525 1525 1525 1525 1524 1524 1524 1524 1524 1524 1524 1524 1524 1523 1523 1523
1483 1485 1489 1492 1495 1498 1500 1502 1503 1506 1508 1510 1511 1513 1515 1516 1518 1519 1520 1521 1521 1522 1522 1523 1523 1523 1523 1523 1523 1523 1523 1523 1523 1523 1522 1522 1522 1522 1522 1522 1522 1521 1521
1482 1484 1487 1490 1493 1496 1498 1500 1501 1504 1506 1508 1509 1511 1513 1514 1516 1517 1518 1519 1520 1521 1521 1521 1521 1521 1521 1522 1522 1521 1521 1521 1521 1520 1520 1520 1520 1520 1520 1520 1520 1521 1519
1481 1483 1485 1488 1491 1493 1495 1498 1500 1502 1504 1506 1508 1509 1511 1512 1514 1515 1516 1517 1518 1518 1519 1519 1520 1520 1520 1520 1520 1520 1519 1519 1519 1518 1518 1517 1517 1517 1517 1517 1517 1518 1518
1480 1482 1484 1487 1490 1492 1494 1497 1498 1500 1502 1504 1506 1508 1509 1510 1512 1513 1513 1514 1515 1516 1517 1517 1517 1518 1518 1518 1518 1517 1517 1517 1516 1516 1515 1515 1514 1514 1514 1515 1515 1515 1515
1480 1483 1485 1487 1489 1492 1493 1495 1497 1499 1500 1502 1504 1506 1507 1508 1510 1511 1511 1512 1513 1514 1515 1515 1515 1516 1515 1515 1515 1515 1515 1514 1513 1513 1512 1512 1512 1511 1511 1511 1512 1512 1512
1482 1484 1486 1488 1490 1492 1493 1495 1496 1498 1499 1501 1502 1504 1505 1506 1508 1509 1509 1510 1510 1511 1512 1513 1513 1513 1513 1513 1513 1512 1512 1511 1510 1510 1509 1509 1509 1508 1508 1508 1508 1509 1509
1484 1485 1487 1488 1490 1492 1493 1494 1496 1497 1498 1499 1501 1502 1503 1504 1505 1506 1507 1508 1509 1509 1510 1510 1511 1511 1511 1510 1510 1510 1509 1509 1508 1507 1506 1505 1505 1505 1505 1505 1505 1505 1505
1484 1486 1488 1489 1490 1492 1493 1494 1495 1496 1497 1498 1499 1500 1501 1502 1503 1504 1505 1506 1507 1507 1507 1508 1508 1508 1508 1507 1507 1507 1507 1506 1505 1504 1503 1503 1502 1502 1502 1502 1502 1502 1502
1485 1487 1488 1489 1490 1491 1492 1493 1493 1494 1495 1496 1497 1498 1499 1500 1501 1502 1503 1504 1504 1505 1505 1505 1505 1505 1505 1505 1505 1504 1504 1503 1502 1501 1500 1500 1499 1499 1498 1498 1498 1499 1499
1485 1487 1488 1489 1490 1490 1491 1491 1492 1492 1493 1494 1496 1497 1497 1498 1499 1500 1501 1501 1502 1502 1502 1502 1502 1502 1502 1502 1502 1501 1501 1500 1499 1498 1497 1497 1497 1496 1495 1495 1495 1495 1496
1485 1487 1488 1488 1489 1489 1490 1490 1491 1491 1492 1493 1494 1495 1495 1496 1497 1498 1498 1499 1499 1500 1500 1500 1500 1500 1500 1500 1499 1499 1498 1497 1496 1495 1495 1494 1493 1493 1492 1492 1492 1492 1492
1485 1487 1488 1488 1488 1488 1488 1489 1490 1490 1491 1491 1492 1492 1493 1494 1495 1495 1496 1497 1497 1497 1497 1497 1497 1497 1497 1497 1497 1496 1496 1495 1493 1493 1492 1491 1491 1490 1490 1490 1489 1489 1489
1485 1486 1487 1487 1487 1487 1487 1488 1488 1489 1489 1489 1490 1490 1491 1491 1492 1493 1493 1494 1494 1494 1495 1495 1495 1495 1494 1494 1494 1494 1493 1492 1491 1490 1489 1488 1488 1488 1487 1487 1486 1485 1485
1484 1485 1486 1486 1486 1486 1486 1486 1487 1487 1487 1488 1488 1488 1489 1489 1490 1490 1491 1491 1491 1492 1492 1492 1492 1492 1491 1491 1490 1490 1490 1489 1488 1487 1486 1486 1485 1485 1484 1484 1483 1483 1483
1484 1485 1485 1485 1485 1485 1485 1485 1485 1486 1486 1486 1486 1486 1487 1487 1488 1488 1488 1488 1489 1489 1489 1489 1489 1489 1488 1488 1487 1487 1487 1487 1486 1485 1484 1483 1482 1481 1481 1480 1480 1480 1479
1485 1485 1485 1485 1485 1485 1484 1484 1484 1484 1484 1484 1484 1484 1484 1485 1485 1485 1486 1486 1486 1486 1486 1486 1486 1486 1485 1485 1484 1484 1483 1483 1482 1481 1480 1479 1478 1478 1477 1477 1477 1476 1476
1484 1484 1484 1484 1484 1484 1484 1483 1483 1482 1482 1482 1482 1482 1482 1483 1483 1483 1483 1483 1483 1483 1483 1483 1483 1482 1482 1481 1481 1480 1479 1479 1478 1477 1476 1475 1475 1474 1474 1474 1473 1473 1473
1483 1483 1483 1483 1483 1482 1482 1482 1481 1481 1481 1480 1480 1480 1481 1481 1480 1480 1481 1481 1481 1481 1481 1480 1480 1479 1478 1478 1477 1477 1476 1475 1474 1473 1472 1472 1471 1471 1471 1470 1470 1470 1470
1482 1482 1482 1482 1481 1481 1481 1480 1480 1479 1479 1479 1479 1479 1478 1478 1478 1478 1478 1478 1478 1478 1477 1477 1477 1476 1476 1475 1475 1474 1473 1472 1471 1470 1469 1468 1468 1468 1468 1467 1467 1466 1466